| time (UTC) | temp F | wind direction | speed MPH | gust MPH | rain 1hr in | rain 24hr in | rain mn in | humidity % | barometer mb |
| 20260509011106 | 74 | 79 | 1.0 | 0.0 | 0.00 | 0.00 | 0.01 | 85 | 1009.0 |
| 20260509010536 | 75 | 79 | 0.0 | 0.0 | 0.00 | 0.00 | 0.01 | 85 | 1009.0 |
| 20260509010041 | 75 | 79 | 1.0 | 0.0 | 0.00 | 0.00 | 0.01 | 85 | 1009.1 |
| 20260509005513 | 75 | 79 | 1.0 | 0.0 | 0.00 | 0.00 | 0.01 | 84 | 1009.1 |
| 20260509005051 | 75 | 71 | 1.0 | 0.0 | 0.00 | 0.00 | 0.01 | 84 | 1009.1 |
| 20260509004556 | 75 | 70 | 1.0 | 0.0 | 0.00 | 0.00 | 0.01 | 84 | 1009.1 |
| 20260509004029 | 75 | 80 | 1.0 | 0.0 | 0.00 | 0.00 | 0.01 | 84 | 1009.2 |
| 20260509003605 | 75 | 55 | 1.0 | 0.0 | 0.00 | 0.00 | 0.01 | 84 | 1009.1 |
| 20260509003059 | 75 | 71 | 1.0 | 0.0 | 0.00 | 0.00 | 0.01 | 83 | 1009.1 |
| 20260509002525 | 75 | 84 | 1.0 | 0.0 | 0.00 | 0.00 | 0.01 | 83 | 1009.1 |
| 20260509002106 | 75 | 82 | 2.0 | 0.0 | 0.00 | 0.00 | 0.01 | 83 | 1009.1 |
| 20260509001507 | 76 | 73 | 2.0 | 0.0 | 0.00 | 0.00 | 0.01 | 82 | 1009.1 |
| 20260509001042 | 76 | 71 | 1.0 | 0.0 | 0.00 | 0.00 | 0.01 | 82 | 1009.2 |
| 20260509000512 | 76 | 90 | 1.0 | 0.0 | 0.00 | 0.00 | 0.01 | 82 | 1009.2 |
| 20260509000032 | 76 | 107 | 1.0 | 0.0 | 0.00 | 0.00 | 0.01 | 82 | 1009.3 |
| 20260508235559 | 76 | 70 | 1.0 | 0.0 | 0.00 | 0.00 | 0.01 | 82 | 1009.3 |
| 20260508235029 | 76 | 69 | 1.0 | 0.0 | 0.00 | 0.00 | 0.01 | 82 | 1009.4 |
| 20260508234538 | 76 | 68 | 1.0 | 0.0 | 0.00 | 0.00 | 0.01 | 81 | 1009.3 |
| 20260508234003 | 76 | 68 | 1.0 | 0.0 | 0.00 | 0.00 | 0.01 | 81 | 1009.3 |
| 20260508233543 | 76 | 68 | 2.0 | 0.0 | 0.00 | 0.00 | 0.01 | 81 | 1009.3 |
| 20260508233042 | 77 | 77 | 2.0 | 0.0 | 0.00 | 0.00 | 0.01 | 80 | 1009.3 |
| 20260508232515 | 77 | 66 | 1.0 | 0.0 | 0.00 | 0.00 | 0.01 | 80 | 1009.3 |
| 20260508232054 | 77 | 77 | 1.0 | 0.0 | 0.00 | 0.00 | 0.01 | 80 | 1009.3 |
| 20260508231540 | 77 | 73 | 1.0 | 0.0 | 0.00 | 0.00 | 0.01 | 80 | 1009.2 |
| 20260508231016 | 77 | 143 | 1.0 | 0.0 | 0.00 | 0.00 | 0.01 | 79 | 1009.3 |
| 20260508230555 | 77 | 74 | 1.0 | 0.0 | 0.00 | 0.00 | 0.01 | 79 | 1009.3 |
| 20260508230108 | 77 | 71 | 1.0 | 0.0 | 0.00 | 0.00 | 0.01 | 79 | 1009.2 |
| 20260508225533 | 77 | 69 | 2.0 | 0.0 | 0.00 | 0.00 | 0.01 | 79 | 1009.2 |
| 20260508225003 | 77 | 130 | 1.0 | 0.0 | 0.00 | 0.00 | 0.01 | 78 | 1009.3 |
| 20260508224508 | 77 | 130 | 1.0 | 0.0 | 0.00 | 0.00 | 0.01 | 78 | 1009.3 |
| 20260508224047 | 78 | 130 | 1.0 | 0.0 | 0.00 | 0.00 | 0.01 | 78 | 1009.3 |
| 20260508223523 | 78 | 130 | 2.0 | 0.0 | 0.00 | 0.00 | 0.01 | 78 | 1009.3 |
| 20260508223031 | 78 | 131 | 2.0 | 0.0 | 0.00 | 0.00 | 0.01 | 77 | 1009.3 |
| 20260508222603 | 78 | 127 | 2.0 | 0.0 | 0.00 | 0.00 | 0.01 | 76 | 1009.3 |
| 20260508222034 | 78 | 72 | 2.0 | 0.0 | 0.00 | 0.00 | 0.01 | 76 | 1009.4 |
| 20260508221539 | 79 | 81 | 2.0 | 0.0 | 0.00 | 0.00 | 0.01 | 75 | 1009.4 |
| 20260508221013 | 79 | 56 | 2.0 | 0.0 | 0.00 | 0.00 | 0.01 | 74 | 1009.4 |
| 20260508220552 | 79 | 37 | 2.0 | 0.0 | 0.00 | 0.00 | 0.01 | 74 | 1009.4 |
| 20260508220036 | 79 | 74 | 2.0 | 0.0 | 0.00 | 0.00 | 0.01 | 74 | 1009.6 |
| 20260508215508 | 79 | 73 | 2.0 | 0.0 | 0.00 | 0.00 | 0.01 | 74 | 1009.6 |
| 20260508215045 | 79 | 80 | 2.0 | 0.0 | 0.00 | 0.00 | 0.01 | 74 | 1009.7 |
| 20260508214600 | 80 | 92 | 2.0 | 0.0 | 0.00 | 0.00 | 0.01 | 74 | 1009.8 |
| 20260508214026 | 79 | 67 | 2.0 | 0.0 | 0.00 | 0.00 | 0.01 | 77 | 1009.7 |
| 20260508213603 | 79 | 86 | 2.0 | 0.0 | 0.00 | 0.00 | 0.01 | 74 | 1009.7 |
| 20260508213008 | 79 | 51 | 3.0 | 0.0 | 0.00 | 0.00 | 0.01 | 76 | 1009.8 |
| 20260508212648 | 78 | 92 | 2.0 | 0.0 | 0.00 | 0.00 | 0.01 | 76 | 1009.8 |
| 20260508212004 | 79 | 148 | 2.0 | 0.0 | 0.00 | 0.00 | 0.01 | 75 | 1009.9 |
| 20260508211557 | 79 | 131 | 2.0 | 0.0 | 0.00 | 0.00 | 0.01 | 73 | 1010.1 |
| 20260508211034 | 79 | 128 | 2.0 | 0.0 | 0.00 | 0.00 | 0.01 | 75 | 1010.1 |
| 20260508210505 | 78 | 133 | 1.0 | 0.0 | 0.00 | 0.00 | 0.01 | 77 | 1010.1 |
| 20260508210113 | 78 | 137 | 1.0 | 0.0 | 0.00 | 0.00 | 0.01 | 74 | 1010.3 |
| 20260508205538 | 78 | 82 | 1.0 | 0.0 | 0.00 | 0.00 | 0.01 | 74 | 1010.5 |
| 20260508205013 | 78 | 76 | 2.0 | 0.0 | 0.00 | 0.00 | 0.01 | 75 | 1010.6 |
| 20260508204606 | 78 | 75 | 2.0 | 0.0 | 0.00 | 0.00 | 0.01 | 76 | 1010.5 |
| 20260508204033 | 77 | 66 | 2.0 | 0.0 | 0.00 | 0.00 | 0.01 | 76 | 1010.6 |
| 20260508203503 | 77 | 86 | 2.0 | 0.0 | 0.00 | 0.00 | 0.01 | 75 | 1010.7 |
| 20260508203009 | 77 | 67 | 3.0 | 0.0 | 0.00 | 0.00 | 0.01 | 74 | 1010.9 |
| 20260508202547 | 78 | 138 | 2.0 | 0.0 | 0.00 | 0.00 | 0.01 | 74 | 1010.9 |
| 20260508202016 | 77 | 58 | 2.0 | 0.0 | 0.00 | 0.00 | 0.01 | 76 | 1011.0 |
| 20260508201525 | 77 | 60 | 3.0 | 0.0 | 0.00 | 0.00 | 0.01 | 76 | 1011.0 |
| 20260508201059 | 77 | 50 | 3.0 | 0.0 | 0.00 | 0.00 | 0.01 | 74 | 1011.0 |
| 20260508200529 | 77 | 55 | 3.0 | 0.0 | 0.00 | 0.00 | 0.01 | 76 | 1011.1 |
| 20260508200036 | 77 | 143 | 2.0 | 0.0 | 0.00 | 0.00 | 0.01 | 76 | 1011.2 |
| 20260508195506 | 77 | 98 | 1.0 | 0.0 | 0.00 | 0.00 | 0.01 | 76 | 1011.3 |
| 20260508195045 | 76 | 138 | 1.0 | 0.0 | 0.00 | 0.00 | 0.01 | 77 | 1011.3 |
| 20260508194618 | 76 | 182 | 2.0 | 0.0 | 0.00 | 0.00 | 0.01 | 75 | 1011.4 |
| 20260508194029 | 76 | 72 | 2.0 | 0.0 | 0.00 | 0.00 | 0.01 | 77 | 1011.5 |
| 20260508193502 | 76 | 135 | 2.0 | 0.0 | 0.00 | 0.00 | 0.01 | 77 | 1011.7 |
| 20260508193014 | 76 | 142 | 2.0 | 0.0 | 0.00 | 0.00 | 0.01 | 76 | 1011.6 |
| 20260508192546 | 75 | 59 | 2.0 | 0.0 | 0.00 | 0.00 | 0.01 | 77 | 1011.6 |
| 20260508192021 | 75 | 115 | 2.0 | 0.0 | 0.00 | 0.00 | 0.01 | 76 | 1011.6 |
| 20260508191525 | 75 | 155 | 2.0 | 0.0 | 0.00 | 0.00 | 0.01 | 77 | 1011.8 |
| 20260508191105 | 76 | 156 | 1.0 | 0.0 | 0.00 | 0.00 | 0.01 | 75 | 1011.9 |
| 20260508190541 | 75 | 129 | 2.0 | 0.0 | 0.00 | 0.00 | 0.01 | 77 | 1011.9 |
| 20260508190046 | 75 | 52 | 2.0 | 0.0 | 0.00 | 0.00 | 0.01 | 76 | 1012.0 |
| 20260508185516 | 75 | 73 | 1.0 | 0.0 | 0.00 | 0.00 | 0.01 | 78 | 1012.0 |
| 20260508185057 | 74 | 84 | 1.0 | 0.0 | 0.00 | 0.00 | 0.01 | 78 | 1012.1 |
| 20260508184541 | 74 | 71 | 1.0 | 0.0 | 0.00 | 0.00 | 0.01 | 79 | 1012.2 |
| 20260508184015 | 74 | 71 | 1.0 | 0.0 | 0.00 | 0.00 | 0.01 | 78 | 1012.3 |
| 20260508183550 | 74 | 62 | 1.0 | 0.0 | 0.00 | 0.00 | 0.01 | 79 | 1012.3 |
| 20260508183056 | 73 | 74 | 1.0 | 0.0 | 0.00 | 0.00 | 0.01 | 80 | 1012.3 |
| 20260508182529 | 73 | 78 | 1.0 | 0.0 | 0.00 | 0.00 | 0.01 | 79 | 1012.4 |
| 20260508182104 | 73 | 71 | 0.0 | 0.0 | 0.00 | 0.00 | 0.01 | 80 | 1012.5 |
| 20260508181504 | 73 | 71 | 1.0 | 0.0 | 0.00 | 0.00 | 0.01 | 79 | 1012.6 |
| 20260508181039 | 73 | 71 | 2.0 | 0.0 | 0.00 | 0.00 | 0.01 | 78 | 1012.6 |
| 20260508180512 | 73 | 71 | 1.0 | 0.0 | 0.00 | 0.00 | 0.01 | 80 | 1012.7 |
| 20260508180014 | 72 | 278 | 1.0 | 0.0 | 0.00 | 0.00 | 0.01 | 80 | 1012.7 |
| 20260508175553 | 72 | 278 | 1.0 | 0.0 | 0.00 | 0.00 | 0.01 | 80 | 1012.7 |
| 20260508175029 | 72 | 272 | 1.0 | 0.0 | 0.00 | 0.00 | 0.01 | 79 | 1012.7 |
| 20260508174526 | 72 | 66 | 1.0 | 0.0 | 0.00 | 0.00 | 0.01 | 80 | 1012.8 |
| 20260508174105 | 72 | 154 | 1.0 | 0.0 | 0.00 | 0.00 | 0.01 | 80 | 1012.8 |
| 20260508173542 | 72 | 78 | 1.0 | 0.0 | 0.00 | 0.00 | 0.01 | 82 | 1012.8 |
| 20260508173039 | 71 | 98 | 1.0 | 0.0 | 0.00 | 0.00 | 0.01 | 81 | 1012.9 |
| 20260508172505 | 71 | 70 | 1.0 | 0.0 | 0.00 | 0.00 | 0.01 | 82 | 1013.0 |
| 20260508172043 | 70 | 40 | 1.0 | 0.0 | 0.00 | 0.00 | 0.01 | 81 | 1013.1 |
| 20260508171546 | 70 | 165 | 1.0 | 0.0 | 0.00 | 0.00 | 0.01 | 83 | 1013.1 |
| 20260508171022 | 69 | 166 | 1.0 | 0.0 | 0.00 | 0.00 | 0.01 | 83 | 1013.1 |
| 20260508170601 | 69 | 166 | 1.0 | 0.0 | 0.00 | 0.00 | 0.01 | 82 | 1013.3 |
| 20260508170106 | 69 | 166 | 0.0 | 0.0 | 0.00 | 0.00 | 0.01 | 82 | 1013.5 |
| 20260508165538 | 69 | 166 | 0.0 | 0.0 | 0.00 | 0.00 | 0.01 | 82 | 1013.7 |
| 20260508165009 | 69 | 166 | 0.0 | 0.0 | 0.00 | 0.00 | 0.01 | 83 | 1013.8 |
| 20260508164517 | 68 | 166 | 1.0 | 0.0 | 0.00 | 0.00 | 0.01 | 81 | 1013.8 |
| 20260508164050 | 69 | 166 | 1.0 | 0.0 | 0.00 | 0.00 | 0.01 | 81 | 1014.0 |
| 20260508163523 | 68 | 166 | 0.0 | 0.0 | 0.00 | 0.00 | 0.01 | 83 | 1013.8 |
| 20260508163026 | 68 | 152 | 0.0 | 0.0 | 0.00 | 0.00 | 0.01 | 83 | 1013.9 |
| 20260508162602 | 68 | 152 | 0.0 | 0.0 | 0.00 | 0.00 | 0.01 | 83 | 1014.0 |
| 20260508162034 | 68 | 152 | 0.0 | 0.0 | 0.00 | 0.00 | 0.01 | 83 | 1014.0 |
| 20260508161542 | 67 | 152 | 0.0 | 0.0 | 0.00 | 0.00 | 0.01 | 83 | 1014.1 |
| 20260508161016 | 67 | 152 | 1.0 | 0.0 | 0.00 | 0.00 | 0.01 | 83 | 1014.1 |
| 20260508160552 | 67 | 152 | 1.0 | 0.0 | 0.00 | 0.00 | 0.01 | 84 | 1014.1 |
| 20260508160058 | 67 | 152 | 1.0 | 0.0 | 0.00 | 0.00 | 0.01 | 83 | 1014.2 |
| 20260508155533 | 67 | 152 | 1.0 | 0.0 | 0.00 | 0.00 | 0.01 | 84 | 1014.3 |
| 20260508155002 | 66 | 152 | 1.0 | 0.0 | 0.00 | 0.00 | 0.01 | 83 | 1014.3 |
| 20260508154503 | 67 | 152 | 1.0 | 0.0 | 0.00 | 0.00 | 0.01 | 83 | 1014.4 |
| 20260508154039 | 66 | 152 | 1.0 | 0.0 | 0.00 | 0.00 | 0.01 | 83 | 1014.4 |
| 20260508153513 | 66 | 152 | 1.0 | 0.0 | 0.00 | 0.00 | 0.01 | 84 | 1014.5 |
| 20260508153104 | 66 | 152 | 1.0 | 0.0 | 0.00 | 0.00 | 0.01 | 83 | 1014.4 |
| 20260508152537 | 66 | 152 | 2.0 | 0.0 | 0.00 | 0.00 | 0.01 | 83 | 1014.3 |
| 20260508152009 | 67 | 152 | 1.0 | 0.0 | 0.00 | 0.00 | 0.01 | 84 | 1014.3 |
| 20260508151609 | 66 | 151 | 1.0 | 0.0 | 0.00 | 0.00 | 0.01 | 84 | 1014.3 |
| 20260508151036 | 66 | 152 | 2.0 | 0.0 | 0.00 | 0.00 | 0.01 | 84 | 1014.3 |
| 20260508150510 | 66 | 152 | 2.0 | 0.0 | 0.00 | 0.00 | 0.01 | 83 | 1014.3 |
| 20260508150013 | 66 | 152 | 2.0 | 0.0 | 0.00 | 0.00 | 0.01 | 83 | 1014.3 |
| 20260508145550 | 66 | 152 | 2.0 | 0.0 | 0.00 | 0.00 | 0.01 | 84 | 1014.3 |
| 20260508145023 | 66 | 152 | 1.0 | 0.0 | 0.00 | 0.00 | 0.01 | 84 | 1014.3 |
| 20260508144525 | 65 | 153 | 1.0 | 0.0 | 0.00 | 0.00 | 0.01 | 85 | 1014.3 |
| 20260508144104 | 65 | 153 | 1.0 | 0.0 | 0.00 | 0.00 | 0.01 | 84 | 1014.3 |
| 20260508143537 | 65 | 153 | 0.0 | 0.0 | 0.00 | 0.00 | 0.01 | 85 | 1014.2 |
| 20260508143029 | 65 | 153 | 0.0 | 0.0 | 0.00 | 0.00 | 0.01 | 85 | 1014.3 |
| 20260508142502 | 65 | 153 | 1.0 | 0.0 | 0.00 | 0.00 | 0.01 | 86 | 1014.3 |
| 20260508142042 | 65 | 153 | 1.0 | 0.0 | 0.00 | 0.00 | 0.01 | 86 | 1014.4 |
| 20260508141547 | 64 | 153 | 1.0 | 0.0 | 0.00 | 0.00 | 0.01 | 87 | 1014.4 |
| 20260508141019 | 64 | 153 | 1.0 | 0.0 | 0.00 | 0.00 | 0.01 | 86 | 1014.3 |
| 20260508140557 | 64 | 154 | 1.0 | 0.0 | 0.00 | 0.00 | 0.01 | 87 | 1014.4 |
| 20260508140044 | 64 | 155 | 1.0 | 0.0 | 0.00 | 0.00 | 0.01 | 88 | 1014.3 |
| 20260508135522 | 63 | 155 | 0.0 | 0.0 | 0.00 | 0.00 | 0.01 | 89 | 1014.1 |
| 20260508135059 | 63 | 163 | 0.0 | 0.0 | 0.00 | 0.00 | 0.01 | 90 | 1014.3 |
| 20260508134544 | 62 | 163 | 1.0 | 0.0 | 0.00 | 0.00 | 0.01 | 89 | 1014.4 |
| 20260508134020 | 62 | 163 | 1.0 | 0.0 | 0.00 | 0.00 | 0.01 | 89 | 1014.7 |
| 20260508133556 | 62 | 163 | 1.0 | 0.0 | 0.00 | 0.00 | 0.01 | 90 | 1014.7 |
| 20260508133121 | 62 | 163 | 0.0 | 0.0 | 0.00 | 0.00 | 0.01 | 90 | 1014.7 |
| 20260508132530 | 61 | 71 | 0.0 | 0.0 | 0.00 | 0.00 | 0.01 | 91 | 1014.6 |
| 20260508132106 | 61 | 71 | 0.0 | 0.0 | 0.00 | 0.00 | 0.01 | 91 | 1014.8 |
| 20260508131503 | 61 | 71 | 0.0 | 0.0 | 0.00 | 0.00 | 0.01 | 91 | 1014.9 |
| 20260508131042 | 60 | 71 | 0.0 | 0.0 | 0.00 | 0.00 | 0.01 | 91 | 1014.9 |
| 20260508130511 | 60 | 71 | 0.0 | 0.0 | 0.00 | 0.00 | 0.01 | 91 | 1014.8 |
| 20260508130021 | 60 | 71 | 0.0 | 0.0 | 0.00 | 0.00 | 0.01 | 91 | 1014.7 |
| 20260508125552 | 60 | 71 | 0.0 | 0.0 | 0.00 | 0.00 | 0.01 | 91 | 1014.8 |
| 20260508125025 | 60 | 71 | 0.0 | 0.0 | 0.00 | 0.00 | 0.01 | 91 | 1014.7 |
| 20260508124526 | 60 | 71 | 0.0 | 0.0 | 0.00 | 0.00 | 0.01 | 92 | 1014.7 |
| 20260508124106 | 60 | 71 | 0.0 | 0.0 | 0.00 | 0.00 | 0.01 | 92 | 1014.7 |
| 20260508123535 | 60 | 71 | 0.0 | 0.0 | 0.00 | 0.00 | 0.01 | 92 | 1014.8 |
| 20260508123053 | 60 | 71 | 0.0 | 0.0 | 0.00 | 0.00 | 0.01 | 92 | 1014.8 |
| 20260508122511 | 60 | 71 | 0.0 | 0.0 | 0.00 | 0.00 | 0.01 | 92 | 1014.8 |
| 20260508122049 | 59 | 71 | 0.0 | 0.0 | 0.00 | 0.00 | 0.01 | 92 | 1014.8 |
| 20260508121558 | 59 | 71 | 0.0 | 0.0 | 0.00 | 0.00 | 0.01 | 92 | 1014.9 |
| 20260508121030 | 59 | 71 | 0.0 | 0.0 | 0.00 | 0.00 | 0.01 | 92 | 1015.0 |
| 20260508120606 | 59 | 71 | 0.0 | 0.0 | 0.00 | 0.00 | 0.01 | 92 | 1015.1 |
| 20260508120003 | 59 | 71 | 0.0 | 0.0 | 0.00 | 0.00 | 0.01 | 92 | 1015.0 |
| 20260508115543 | 59 | 71 | 0.0 | 0.0 | 0.00 | 0.00 | 0.01 | 92 | 1015.0 |
| 20260508115012 | 59 | 71 | 0.0 | 0.0 | 0.00 | 0.00 | 0.01 | 92 | 1015.1 |
| 20260508114517 | 59 | 71 | 0.0 | 0.0 | 0.00 | 0.00 | 0.01 | 92 | 1015.4 |
| 20260508114052 | 59 | 71 | 0.0 | 0.0 | 0.00 | 0.00 | 0.01 | 92 | 1015.6 |
| 20260508113525 | 59 | 71 | 0.0 | 0.0 | 0.00 | 0.00 | 0.01 | 92 | 1015.5 |
| 20260508113028 | 59 | 71 | 0.0 | 0.0 | 0.00 | 0.00 | 0.01 | 92 | 1015.4 |
| 20260508112606 | 59 | 71 | 0.0 | 0.0 | 0.00 | 0.00 | 0.01 | 92 | 1015.4 |
| 20260508112036 | 59 | 71 | 0.0 | 0.0 | 0.00 | 0.00 | 0.01 | 92 | 1015.2 |
| 20260508111541 | 59 | 71 | 0.0 | 0.0 | 0.00 | 0.00 | 0.01 | 92 | 1015.1 |
| 20260508111011 | 59 | 71 | 0.0 | 0.0 | 0.00 | 0.00 | 0.01 | 92 | 1015.2 |
| 20260508110550 | 59 | 71 | 0.0 | 0.0 | 0.00 | 0.00 | 0.01 | 92 | 1015.1 |
| 20260508110043 | 59 | 71 | 0.0 | 0.0 | 0.00 | 0.00 | 0.01 | 92 | 1015.1 |
| 20260508105506 | 59 | 71 | 0.0 | 0.0 | 0.00 | 0.00 | 0.01 | 92 | 1015.1 |
| 20260508105044 | 59 | 71 | 0.0 | 0.0 | 0.00 | 0.00 | 0.01 | 92 | 1015.0 |
| 20260508104553 | 60 | 71 | 0.0 | 0.0 | 0.00 | 0.00 | 0.01 | 92 | 1015.0 |
| 20260508104029 | 60 | 71 | 0.0 | 0.0 | 0.00 | 0.00 | 0.01 | 91 | 1015.0 |
| 20260508103606 | 60 | 71 | 0.0 | 0.0 | 0.00 | 0.00 | 0.01 | 91 | 1015.2 |
| 20260508103013 | 60 | 71 | 0.0 | 0.0 | 0.00 | 0.00 | 0.01 | 91 | 1015.4 |
| 20260508102539 | 60 | 71 | 0.0 | 0.0 | 0.00 | 0.00 | 0.01 | 91 | 1015.5 |
| 20260508102012 | 60 | 71 | 0.0 | 0.0 | 0.00 | 0.00 | 0.01 | 91 | 1015.4 |
| 20260508101516 | 60 | 71 | 0.0 | 0.0 | 0.00 | 0.00 | 0.01 | 91 | 1015.4 |
| 20260508101059 | 60 | 71 | 0.0 | 0.0 | 0.00 | 0.00 | 0.01 | 91 | 1015.7 |
| 20260508100528 | 60 | 71 | 0.0 | 0.0 | 0.00 | 0.00 | 0.01 | 90 | 1015.6 |
| 20260508100034 | 60 | 71 | 0.0 | 0.0 | 0.00 | 0.00 | 0.01 | 90 | 1015.8 |
| 20260508095508 | 60 | 71 | 0.0 | 0.0 | 0.00 | 0.00 | 0.01 | 90 | 1015.7 |
| 20260508095042 | 60 | 71 | 0.0 | 0.0 | 0.00 | 0.00 | 0.01 | 90 | 1015.7 |
| 20260508094532 | 60 | 71 | 1.0 | 0.0 | 0.00 | 0.00 | 0.01 | 89 | 1015.9 |
| 20260508094008 | 60 | 71 | 0.0 | 0.0 | 0.00 | 0.00 | 0.00 | 88 | 1016.1 |
| 20260508093544 | 60 | 71 | 0.0 | 0.0 | 0.00 | 0.00 | 0.00 | 88 | 1016.1 |
| 20260508093032 | 60 | 71 | 1.0 | 0.0 | 0.00 | 0.00 | 0.00 | 88 | 1016.0 |
| 20260508092504 | 60 | 71 | 1.0 | 0.0 | 0.00 | 0.00 | 0.00 | 88 | 1015.8 |
| 20260508092043 | 60 | 71 | 0.0 | 0.0 | 0.00 | 0.00 | 0.00 | 88 | 1015.7 |
| 20260508091533 | 60 | 71 | 0.0 | 0.0 | 0.00 | 0.00 | 0.00 | 88 | 1015.5 |
| 20260508091007 | 60 | 71 | 0.0 | 0.0 | 0.00 | 0.00 | 0.00 | 88 | 1015.4 |
| 20260508090546 | 60 | 71 | 0.0 | 0.0 | 0.00 | 0.00 | 0.00 | 88 | 1015.4 |
| 20260508090053 | 60 | 71 | 0.0 | 0.0 | 0.00 | 0.00 | 0.00 | 88 | 1015.4 |
| 20260508085523 | 60 | 71 | 0.0 | 0.0 | 0.00 | 0.00 | 0.00 | 88 | 1015.3 |
| 20260508085105 | 60 | 71 | 0.0 | 0.0 | 0.00 | 0.00 | 0.00 | 88 | 1015.2 |
| 20260508084505 | 60 | 71 | 0.0 | 0.0 | 0.00 | 0.00 | 0.00 | 89 | 1015.0 |
| 20260508084041 | 60 | 71 | 0.0 | 0.0 | 0.00 | 0.00 | 0.00 | 89 | 1015.1 |
| 20260508083513 | 60 | 71 | 0.0 | 0.0 | 0.00 | 0.00 | 0.00 | 89 | 1015.4 |
| 20260508083014 | 59 | 71 | 0.0 | 0.0 | 0.00 | 0.00 | 0.00 | 89 | 1015.4 |
| 20260508082550 | 59 | 71 | 0.0 | 0.0 | 0.00 | 0.00 | 0.00 | 89 | 1015.4 |
| 20260508082023 | 59 | 71 | 0.0 | 0.0 | 0.00 | 0.00 | 0.00 | 89 | 1015.1 |
| 20260508081531 | 59 | 71 | 0.0 | 0.0 | 0.00 | 0.00 | 0.00 | 90 | 1015.1 |
| 20260508081059 | 59 | 71 | 0.0 | 0.0 | 0.00 | 0.00 | 0.00 | 90 | 1015.1 |
| 20260508080533 | 59 | 71 | 0.0 | 0.0 | 0.00 | 0.00 | 0.00 | 90 | 1014.8 |
| 20260508080038 | 59 | 71 | 0.0 | 0.0 | 0.00 | 0.00 | 0.00 | 91 | 1015.0 |
| 20260508075511 | 58 | 71 | 0.0 | 0.0 | 0.00 | 0.00 | 0.00 | 91 | 1014.9 |
| 20260508075046 | 58 | 71 | 0.0 | 0.0 | 0.00 | 0.00 | 0.00 | 91 | 1014.9 |
| 20260508074536 | 58 | 71 | 0.0 | 0.0 | 0.00 | 0.00 | 0.00 | 91 | 1014.9 |
| 20260508074010 | 58 | 71 | 0.0 | 0.0 | 0.00 | 0.00 | 0.00 | 91 | 1014.9 |
| 20260508073546 | 58 | 71 | 0.0 | 0.0 | 0.00 | 0.00 | 0.00 | 91 | 1014.9 |
| 20260508073053 | 58 | 71 | 0.0 | 0.0 | 0.00 | 0.00 | 0.00 | 91 | 1015.2 |
| 20260508072524 | 58 | 71 | 0.0 | 0.0 | 0.00 | 0.00 | 0.00 | 91 | 1015.3 |
| 20260508072058 | 58 | 71 | 0.0 | 0.0 | 0.00 | 0.00 | 0.00 | 91 | 1015.3 |
| 20260508071603 | 58 | 71 | 0.0 | 0.0 | 0.00 | 0.00 | 0.00 | 91 | 1015.3 |
| 20260508071032 | 58 | 71 | 0.0 | 0.0 | 0.00 | 0.00 | 0.00 | 91 | 1015.4 |
| 20260508070507 | 58 | 71 | 0.0 | 0.0 | 0.00 | 0.00 | 0.00 | 91 | 1015.4 |
| 20260508070009 | 58 | 71 | 0.0 | 0.0 | 0.00 | 0.00 | 0.00 | 91 | 1015.7 |
| 20260508065544 | 58 | 71 | 0.0 | 0.0 | 0.00 | 0.00 | 0.00 | 91 | 1015.9 |
| 20260508065017 | 57 | 71 | 0.0 | 0.0 | 0.00 | 0.00 | 0.00 | 91 | 1016.0 |
| 20260508064521 | 57 | 71 | 0.0 | 0.0 | 0.00 | 0.00 | 0.00 | 91 | 1016.0 |
| 20260508064058 | 57 | 71 | 0.0 | 0.0 | 0.00 | 0.00 | 0.00 | 91 | 1016.1 |
| 20260508063529 | 57 | 71 | 0.0 | 0.0 | 0.00 | 0.00 | 0.00 | 91 | 1016.1 |
| 20260508063033 | 57 | 71 | 0.0 | 0.0 | 0.00 | 0.00 | 0.00 | 90 | 1016.1 |
| 20260508062507 | 58 | 71 | 0.0 | 0.0 | 0.00 | 0.00 | 0.00 | 90 | 1015.9 |
| 20260508062042 | 58 | 71 | 0.0 | 0.0 | 0.00 | 0.00 | 0.00 | 90 | 1016.0 |
| 20260508061544 | 58 | 71 | 0.0 | 0.0 | 0.00 | 0.00 | 0.00 | 90 | 1016.1 |
| 20260508061017 | 58 | 71 | 0.0 | 0.0 | 0.00 | 0.00 | 0.00 | 90 | 1016.3 |
| 20260508060553 | 58 | 71 | 0.0 | 0.0 | 0.00 | 0.00 | 0.00 | 90 | 1016.2 |
| 20260508060036 | 58 | 71 | 0.0 | 0.0 | 0.00 | 0.00 | 0.00 | 90 | 1016.2 |
| 20260508055509 | 58 | 71 | 0.0 | 0.0 | 0.00 | 0.00 | 0.00 | 90 | 1016.2 |
| 20260508055048 | 58 | 71 | 0.0 | 0.0 | 0.00 | 0.00 | 0.00 | 90 | 1016.2 |
| 20260508054554 | 58 | 71 | 0.0 | 0.0 | 0.00 | 0.00 | 0.00 | 90 | 1015.8 |
| 20260508054022 | 58 | 71 | 0.0 | 0.0 | 0.00 | 0.00 | 0.00 | 90 | 1015.8 |
| 20260508053601 | 58 | 71 | 0.0 | 0.0 | 0.00 | 0.00 | 0.00 | 90 | 1015.8 |
| 20260508053002 | 58 | 71 | 0.0 | 0.0 | 0.00 | 0.00 | 0.00 | 90 | 1016.0 |
| 20260508052536 | 58 | 71 | 0.0 | 0.0 | 0.00 | 0.00 | 0.00 | 90 | 1016.1 |
| 20260508052005 | 58 | 71 | 0.0 | 0.0 | 0.00 | 0.00 | 0.00 | 90 | 1016.0 |
| 20260508051520 | 58 | 71 | 0.0 | 0.0 | 0.00 | 0.00 | 0.00 | 90 | 1015.8 |
| 20260508051047 | 58 | 71 | 0.0 | 0.0 | 0.00 | 0.00 | 0.00 | 89 | 1016.0 |
| 20260508050524 | 58 | 71 | 0.0 | 0.0 | 0.00 | 0.00 | 0.00 | 89 | 1016.0 |
| 20260508050025 | 58 | 71 | 0.0 | 0.0 | 0.00 | 0.00 | 0.00 | 89 | 1016.3 |
| 20260508045603 | 59 | 71 | 0.0 | 0.0 | 0.00 | 0.00 | 0.00 | 89 | 1016.4 |
| 20260508045041 | 59 | 71 | 0.0 | 0.0 | 0.00 | 0.00 | 0.00 | 90 | 1016.1 |
| 20260508044559 | 59 | 71 | 0.0 | 0.0 | 0.00 | 0.00 | 0.00 | 89 | 1016.6 |
| 20260508044013 | 59 | 71 | 0.0 | 0.0 | 0.00 | 0.00 | 0.00 | 89 | 1016.6 |
| 20260508043555 | 59 | 71 | 0.0 | 0.0 | 0.00 | 0.00 | 0.00 | 89 | 1016.7 |
| 20260508043108 | 59 | 71 | 0.0 | 0.0 | 0.00 | 0.00 | 0.00 | 89 | 1016.3 |
| 20260508042529 | 59 | 71 | 0.0 | 0.0 | 0.00 | 0.00 | 0.00 | 89 | 1016.1 |
| 20260508042005 | 59 | 71 | 0.0 | 0.0 | 0.00 | 0.00 | 0.00 | 88 | 1016.2 |
| 20260508041506 | 59 | 71 | 0.0 | 0.0 | 0.00 | 0.00 | 0.00 | 88 | 1016.4 |
| 20260508041045 | 59 | 71 | 0.0 | 0.0 | 0.00 | 0.00 | 0.00 | 88 | 1016.4 |
| 20260508040521 | 59 | 71 | 0.0 | 0.0 | 0.00 | 0.00 | 0.00 | 87 | 1016.4 |
| 20260508040026 | 59 | 71 | 0.0 | 0.0 | 0.00 | 0.00 | 0.00 | 87 | 1016.6 |
| 20260508035602 | 60 | 71 | 0.0 | 0.0 | 0.00 | 0.00 | 0.00 | 86 | 1016.6 |
| 20260508035035 | 60 | 71 | 0.0 | 0.0 | 0.00 | 0.00 | 0.00 | 86 | 1016.7 |
| 20260508034543 | 60 | 71 | 0.0 | 0.0 | 0.00 | 0.00 | 0.00 | 86 | 1016.8 |
| 20260508034009 | 60 | 71 | 0.0 | 0.0 | 0.00 | 0.00 | 0.00 | 85 | 1016.8 |
| 20260508033545 | 60 | 71 | 0.0 | 0.0 | 0.00 | 0.00 | 0.00 | 85 | 1017.1 |
| 20260508033032 | 60 | 71 | 0.0 | 0.0 | 0.00 | 0.00 | 0.00 | 85 | 1016.9 |
| 20260508032502 | 60 | 71 | 1.0 | 0.0 | 0.00 | 0.00 | 0.00 | 85 | 1016.7 |
| 20260508032042 | 60 | 71 | 1.0 | 0.0 | 0.00 | 0.00 | 0.00 | 85 | 1016.6 |
| 20260508031528 | 60 | 71 | 0.0 | 0.0 | 0.00 | 0.00 | 0.00 | 85 | 1016.6 |
| 20260508031004 | 60 | 71 | 0.0 | 0.0 | 0.00 | 0.00 | 0.00 | 85 | 1016.9 |
| 20260508030543 | 60 | 71 | 0.0 | 0.0 | 0.00 | 0.00 | 0.00 | 85 | 1016.8 |
| 20260508030042 | 60 | 71 | 0.0 | 0.0 | 0.00 | 0.00 | 0.00 | 85 | 1016.1 |
| 20260508025505 | 60 | 71 | 0.0 | 0.0 | 0.00 | 0.00 | 0.00 | 85 | 1015.9 |
| 20260508025041 | 61 | 71 | 0.0 | 0.0 | 0.00 | 0.00 | 0.00 | 85 | 1015.6 |
| 20260508024552 | 61 | 71 | 0.0 | 0.0 | 0.00 | 0.00 | 0.00 | 84 | 1015.6 |
| 20260508024026 | 61 | 71 | 0.0 | 0.0 | 0.00 | 0.00 | 0.00 | 84 | 1015.7 |
| 20260508023501 | 61 | 71 | 0.0 | 0.0 | 0.00 | 0.00 | 0.00 | 84 | 1015.4 |
| 20260508023010 | 61 | 71 | 0.0 | 0.0 | 0.00 | 0.00 | 0.00 | 84 | 1015.1 |
| 20260508022543 | 61 | 71 | 0.0 | 0.0 | 0.00 | 0.00 | 0.00 | 83 | 1015.0 |
| 20260508022020 | 61 | 71 | 0.0 | 0.0 | 0.00 | 0.00 | 0.00 | 83 | 1015.0 |
| 20260508021526 | 61 | 71 | 0.0 | 0.0 | 0.00 | 0.00 | 0.00 | 83 | 1015.1 |
| 20260508021100 | 61 | 71 | 0.0 | 0.0 | 0.00 | 0.00 | 0.00 | 82 | 1015.0 |
| 20260508020530 | 61 | 71 | 0.0 | 0.0 | 0.00 | 0.00 | 0.00 | 83 | 1015.0 |
| 20260508020039 | 61 | 71 | 0.0 | 0.0 | 0.00 | 0.00 | 0.00 | 82 | 1015.0 |
| 20260508015508 | 62 | 71 | 0.0 | 0.0 | 0.00 | 0.00 | 0.00 | 82 | 1015.1 |
| 20260508015048 | 62 | 71 | 0.0 | 0.0 | 0.00 | 0.00 | 0.00 | 82 | 1014.9 |
| 20260508014550 | 62 | 71 | 0.0 | 0.0 | 0.00 | 0.00 | 0.00 | 81 | 1014.8 |
| 20260508014023 | 62 | 71 | 0.0 | 0.0 | 0.00 | 0.00 | 0.00 | 82 | 1014.9 |
| 20260508013605 | 62 | 71 | 0.0 | 0.0 | 0.00 | 0.00 | 0.00 | 81 | 1015.1 |
| 20260508013106 | 62 | 71 | 0.0 | 0.0 | 0.00 | 0.00 | 0.00 | 81 | 1015.1 |
| 20260508012540 | 62 | 71 | 0.0 | 0.0 | 0.00 | 0.00 | 0.00 | 81 | 1015.1 |
| 20260508012017 | 63 | 71 | 0.0 | 0.0 | 0.00 | 0.00 | 0.00 | 80 | 1015.0 |
| 20260508011525 | 63 | 71 | 0.0 | 0.0 | 0.00 | 0.00 | 0.00 | 79 | 1014.9 |